Regional Weather Roundup
Issued by NWS

Home | Current Version | Previous Version | Graphics & Text | Print | Product List | Glossary On
Versions: 1 2 3 4 5 6 7 8 9 10 11 12 13 14 15 16 17 18 19 20 21 22 23 24 25 26 27 28 29 30 31 32 33 34 35 36 37 38 39 40 41 42 43 44 45 46 47 48 49 50
000
ASUS45 KCYS 261710
RWRWY

WYOMING REGIONAL WEATHER ROUNDUP
NATIONAL WEATHER SERVICE CHEYENNE WY
1100 AM MDT MON JUN 26 2017

NOTE:  "FAIR" INDICATES FEW OR NO CLOUDS BELOW 12,000 FEET
WITH NO SIGNIFICANT WEATHER AND/OR OBSTRUCTIONS TO VISIBILITY.

WYZ001-261800-
YELLOWSTONE NATIONAL PARK

CITY           SKY/WX    TMP DP  RH WIND       PRES   REMARKS
LK YELLOWSTONE   N/A     60  37  42 SE5       30.37F
W YELLOWSTONE  NOT AVBL

$$
WYZ002>013-054>058-071-098>099-261800-
NORTHERN WYOMING

CITY           SKY/WX    TMP DP  RH WIND       PRES   REMARKS
JACKSON        FAIR      66  45  45 SW3       30.29F
CODY           FAIR      77  39  25 SE9       30.18F
GREYBULL       FAIR      80  35  19 S10       30.12F
WORLAND        FAIR      81  35  19 VRB5      30.13F
SHERIDAN       FAIR      76  49  38 E5        30.13F
BUFFALO        FAIR      75  43  31 SE8       30.19F
GILLETTE       FAIR      75  37  25 S12       30.18F
NEWCASTLE      FAIR      70  34  26 S12G21    30.24F

$$
WYZ014>020-022>026-101>103-261800-
CENTRAL WYOMING

CITY           SKY/WX    TMP DP  RH WIND       PRES   REMARKS
BIG PINEY      FAIR      69  38  32 SW6       30.35F
PINEDALE       FAIR      70  32  24 CALM      30.35S
DUBOIS         FAIR      72  32  23 E3        30.30F
LANDER         FAIR      71  38  29 E5        30.23F
RIVERTON       FAIR      71  37  28 CALM      30.23F
CASPER         FAIR      76  36  23 SW8       30.23F
DOUGLAS        FAIR      75  39  27 SE6       30.24F

$$
WYZ021-027>030-104>119-261800-
SOUTHERN WYOMING

CITY           SKY/WX    TMP DP  RH WIND       PRES   REMARKS
EVANSTON       FAIR      72  41  32 NE5       30.32F
KEMMERER         N/A     72  32  23 NE6       30.35F
FORT BRIDGER   FAIR      72  36  26 E5        30.35F
ROCK SPRINGS   FAIR      75  28  17 NE6       30.31F
DIXON          FAIR      78  29  16 CALM      30.32F
RAWLINS        FAIR      73  30  20 SE6       30.32F
SARATOGA       FAIR      73  30  20 N9        30.34F
LARAMIE        FAIR      72  30  21 N7G20     30.35F
CHEYENNE       FAIR      73  43  33 VRB6      30.30F
TORRINGTON     FAIR      74  41  30 E6        30.22F
PINE BLUFFS    FAIR      73  45  35 N7        30.27S

$$



USA.gov is the U.S. government's official web portal to all federal, state and local government web resources and services.